Time,TemperatureF,DewpointF,PressureIn,WindDirection,WindDirectionDegrees,WindSpeedMPH,WindSpeedGustMPH,Humidity,HourlyPrecipIn,Conditions,Clouds,dailyrainin,SolarRadiationWatts/m^2,SoftwareType,DateUTC
2013-07-10 00:01:00,68.0,64.0,30.50,SSE,148,2.0,8.0,88,0.00,,,0.00,0.000000,,2013-07-10 04:01:00,
2013-07-10 00:33:00,68.0,66.0,30.51,WSW,243,2.0,9.0,93,0.00,,,0.00,0.000000,,2013-07-10 04:33:00,
2013-07-10 00:43:00,68.0,66.0,30.51,WSW,243,2.0,9.0,93,0.00,,,0.00,0.000000,,2013-07-10 04:43:00,
2013-07-10 00:52:00,68.0,66.0,30.51,WSW,243,2.0,9.0,93,0.00,,,0.00,0.000000,,2013-07-10 04:52:00,
2013-07-10 01:02:00,68.0,66.0,30.51,WSW,243,2.0,9.0,93,0.00,,,0.00,0.000000,,2013-07-10 05:02:00,
2013-07-10 01:32:00,65.0,64.0,30.50,East,85,2.0,7.0,97,0.00,,,0.00,0.000000,,2013-07-10 05:32:00,
2013-07-10 01:42:00,65.0,64.0,30.50,East,85,2.0,7.0,97,0.00,,,0.00,0.000000,,2013-07-10 05:42:00,
2013-07-10 01:53:00,65.0,64.0,30.50,East,85,2.0,7.0,97,0.00,,,0.00,0.000000,,2013-07-10 05:53:00,
2013-07-10 02:01:00,65.0,64.0,30.50,East,85,2.0,7.0,97,0.00,,,0.00,0.000000,,2013-07-10 06:01:00,
2013-07-10 02:33:00,67.0,67.0,30.49,NNE,15,1.0,7.0,99,0.00,,,0.00,0.000000,,2013-07-10 06:33:00,
2013-07-10 02:42:00,67.0,67.0,30.49,NNE,15,1.0,7.0,99,0.00,,,0.00,0.000000,,2013-07-10 06:42:00,
2013-07-10 02:52:00,67.0,67.0,30.49,NNE,15,1.0,7.0,99,0.00,,,0.00,0.000000,,2013-07-10 06:52:00,
2013-07-10 03:01:00,67.0,67.0,30.49,NNE,15,1.0,7.0,99,0.00,,,0.00,0.000000,,2013-07-10 07:01:00,
2013-07-10 03:33:00,67.0,67.0,30.46,NNW,342,2.0,5.0,100,0.00,,,0.00,0.000000,,2013-07-10 07:33:00,
2013-07-10 03:43:00,67.0,67.0,30.46,NNW,342,2.0,5.0,100,0.00,,,0.00,0.000000,,2013-07-10 07:43:00,
2013-07-10 03:53:00,67.0,67.0,30.46,NNW,342,2.0,5.0,100,0.00,,,0.00,0.000000,,2013-07-10 07:53:00,
2013-07-10 04:02:00,67.0,67.0,30.46,NNW,342,2.0,5.0,100,0.00,,,0.00,0.000000,,2013-07-10 08:02:00,
2013-07-10 04:33:00,64.0,64.0,30.45,NW,326,2.0,5.0,100,0.00,,,0.00,0.000000,,2013-07-10 08:33:00,
2013-07-10 04:42:00,64.0,64.0,30.45,NW,326,2.0,5.0,100,0.00,,,0.00,0.000000,,2013-07-10 08:42:00,
2013-07-10 04:53:00,64.0,64.0,30.45,NW,326,2.0,5.0,100,0.00,,,0.00,0.000000,,2013-07-10 08:53:00,
2013-07-10 05:02:00,64.0,64.0,30.45,NW,326,2.0,5.0,100,0.00,,,0.00,0.000000,,2013-07-10 09:02:00,
2013-07-10 05:43:00,64.0,64.0,30.45,NNW,335,1.0,3.0,100,0.00,,,0.00,0.000000,,2013-07-10 09:43:00,
2013-07-10 05:53:00,64.0,64.0,30.45,NNW,335,1.0,3.0,100,0.00,,,0.00,0.000000,,2013-07-10 09:53:00,
2013-07-10 06:01:00,64.0,64.0,30.45,NNW,335,1.0,3.0,100,0.00,,,0.00,0.000000,,2013-07-10 10:01:00,
2013-07-10 06:32:00,65.0,65.0,30.48,SSE,156,1.0,3.0,100,0.00,,,0.00,0.000000,,2013-07-10 10:32:00,
2013-07-10 06:51:00,-999.0,-99.9,30.48,SSE,156,1.0,3.0,-999,-99.99,,,-99.99,0.000000,,2013-07-10 10:51:00,
2013-07-10 07:00:00,-999.0,-99.9,30.48,SSE,156,1.0,3.0,-999,-99.99,,,-99.99,0.000000,,2013-07-10 11:00:00,
2013-07-10 09:52:00,74.0,70.0,30.47,WSW,245,2.0,6.0,86,-99.99,,,0.00,190.000000,,2013-07-10 13:52:00,
2013-07-10 10:01:00,74.0,70.0,30.47,WSW,245,2.0,6.0,86,-99.99,,,0.00,190.000000,,2013-07-10 14:01:00,
2013-07-10 10:43:00,76.0,69.0,30.46,South,177,2.0,5.0,79,0.00,,,0.00,318.000000,,2013-07-10 14:43:00,
2013-07-10 10:53:00,76.0,69.0,30.46,South,177,2.0,5.0,79,0.00,,,0.00,318.000000,,2013-07-10 14:53:00,
2013-07-10 11:01:00,76.0,69.0,30.46,South,177,2.0,5.0,79,0.00,,,0.00,318.000000,,2013-07-10 15:01:00,
2013-07-10 11:43:00,83.0,71.0,30.45,WNW,298,2.0,6.0,68,0.00,,,0.00,589.000000,,2013-07-10 15:43:00,
2013-07-10 11:52:00,83.0,71.0,30.45,WNW,298,2.0,6.0,68,0.00,,,0.00,589.000000,,2013-07-10 15:52:00,
2013-07-10 12:01:00,83.0,71.0,30.45,WNW,298,2.0,6.0,68,0.00,,,0.00,589.000000,,2013-07-10 16:01:00,
2013-07-10 12:33:00,82.0,69.0,30.44,West,281,3.0,12.0,64,0.00,,,0.00,853.000000,,2013-07-10 16:33:00,
2013-07-10 12:44:00,82.0,69.0,30.44,West,281,3.0,12.0,64,0.00,,,0.00,853.000000,,2013-07-10 16:44:00,
2013-07-10 12:53:00,82.0,69.0,30.44,West,281,3.0,12.0,64,0.00,,,0.00,853.000000,,2013-07-10 16:53:00,
2013-07-10 13:02:00,82.0,69.0,30.44,West,281,3.0,12.0,64,0.00,,,0.00,853.000000,,2013-07-10 17:02:00,
2013-07-10 13:32:00,87.0,71.0,30.40,WNW,302,2.0,11.0,59,0.00,,,0.00,818.000000,,2013-07-10 17:32:00,
2013-07-10 13:43:00,87.0,71.0,30.40,WNW,302,2.0,11.0,59,0.00,,,0.00,818.000000,,2013-07-10 17:43:00,
2013-07-10 13:53:00,87.0,71.0,30.40,WNW,302,2.0,11.0,59,0.00,,,0.00,818.000000,,2013-07-10 17:53:00,
2013-07-10 14:02:00,87.0,71.0,30.40,WNW,302,2.0,11.0,59,0.00,,,0.00,818.000000,,2013-07-10 18:02:00,
2013-07-10 14:44:00,90.0,72.0,30.38,West,265,3.0,9.0,55,0.00,,,0.00,1160.000000,,2013-07-10 18:44:00,
2013-07-10 14:53:00,90.0,72.0,30.38,West,265,3.0,9.0,55,0.00,,,0.00,1160.000000,,2013-07-10 18:53:00,
2013-07-10 15:01:00,90.0,72.0,30.38,West,265,3.0,9.0,55,0.00,,,0.00,1160.000000,,2013-07-10 19:01:00,
2013-07-10 15:32:00,82.0,68.0,30.36,SSW,208,5.0,14.0,62,0.00,,,0.00,759.000000,,2013-07-10 19:32:00,
2013-07-10 15:42:00,82.0,68.0,30.36,SSW,208,5.0,14.0,62,0.00,,,0.00,759.000000,,2013-07-10 19:42:00,
2013-07-10 15:53:00,82.0,68.0,30.36,SSW,208,5.0,14.0,62,0.00,,,0.00,759.000000,,2013-07-10 19:53:00,
2013-07-10 16:01:00,82.0,68.0,30.36,SSW,208,5.0,14.0,62,0.00,,,0.00,759.000000,,2013-07-10 20:01:00,
2013-07-10 16:32:00,79.0,71.0,30.37,SSW,213,3.0,15.0,77,0.00,,,0.00,252.000000,,2013-07-10 20:32:00,
2013-07-10 16:43:00,79.0,71.0,30.37,SSW,213,3.0,15.0,77,0.00,,,0.00,252.000000,,2013-07-10 20:43:00,
2013-07-10 16:52:00,79.0,71.0,30.37,SSW,213,3.0,15.0,77,0.00,,,0.00,252.000000,,2013-07-10 20:52:00,
2013-07-10 17:01:00,79.0,71.0,30.37,SSW,213,3.0,15.0,77,0.00,,,0.00,252.000000,,2013-07-10 21:01:00,
2013-07-10 17:32:00,79.0,72.0,30.35,East,82,2.0,10.0,79,0.00,,,0.00,228.000000,,2013-07-10 21:32:00,
2013-07-10 17:42:00,79.0,72.0,30.35,East,82,2.0,10.0,79,0.00,,,0.00,228.000000,,2013-07-10 21:42:00,
2013-07-10 17:52:00,79.0,72.0,30.35,East,82,2.0,10.0,79,0.00,,,0.00,228.000000,,2013-07-10 21:52:00,
2013-07-10 18:01:00,79.0,72.0,30.35,East,82,2.0,10.0,79,0.00,,,0.00,228.000000,,2013-07-10 22:01:00,
2013-07-10 19:32:00,72.0,68.0,30.37,West,281,1.0,11.0,86,-99.99,,,0.00,72.000000,,2013-07-10 23:32:00,
2013-07-10 19:43:00,72.0,68.0,30.37,West,281,1.0,11.0,86,-99.99,,,0.00,72.000000,,2013-07-10 23:43:00,
2013-07-10 19:44:00,72.0,68.0,30.37,West,281,1.0,11.0,86,-99.99,,,0.00,72.000000,,2013-07-10 23:44:00,
2013-07-10 19:52:00,72.0,68.0,30.37,West,281,1.0,11.0,86,-99.99,,,0.00,72.000000,,2013-07-10 23:52:00,
2013-07-10 20:01:00,72.0,68.0,30.37,West,281,1.0,11.0,86,-99.99,,,0.00,72.000000,,2013-07-11 00:01:00,
2013-07-10 20:32:00,70.0,68.0,30.39,SE,131,3.0,10.0,93,0.00,,,0.00,23.000000,,2013-07-11 00:32:00,
2013-07-10 20:43:00,70.0,68.0,30.39,SE,131,3.0,10.0,93,0.00,,,0.00,23.000000,,2013-07-11 00:43:00,
2013-07-10 20:52:00,70.0,68.0,30.39,SE,131,3.0,10.0,93,0.00,,,0.00,23.000000,,2013-07-11 00:52:00,
2013-07-10 21:01:00,70.0,68.0,30.39,SE,131,3.0,10.0,93,0.00,,,0.00,23.000000,,2013-07-11 01:01:00,
2013-07-10 21:32:00,68.0,67.0,30.39,SSW,202,3.0,9.0,98,0.00,,,0.00,6.000000,,2013-07-11 01:32:00,
2013-07-10 21:43:00,68.0,67.0,30.39,SSW,202,3.0,9.0,98,0.00,,,0.00,6.000000,,2013-07-11 01:43:00,
2013-07-10 21:52:00,68.0,67.0,30.39,SSW,202,3.0,9.0,98,0.00,,,0.00,6.000000,,2013-07-11 01:52:00,
2013-07-10 22:02:00,68.0,67.0,30.39,SSW,202,3.0,9.0,98,0.00,,,0.00,6.000000,,2013-07-11 02:02:00,
2013-07-10 22:44:00,67.0,67.0,30.38,NE,41,1.0,6.0,99,0.00,,,0.00,0.000000,,2013-07-11 02:44:00,
2013-07-10 22:53:00,67.0,67.0,30.38,NE,41,1.0,6.0,99,0.00,,,0.00,0.000000,,2013-07-11 02:53:00,
2013-07-10 23:02:00,67.0,67.0,30.38,NE,41,1.0,6.0,99,0.00,,,0.00,0.000000,,2013-07-11 03:02:00,
2013-07-10 23:42:00,67.0,67.0,30.36,ESE,120,4.0,7.0,99,0.00,,,0.00,0.000000,,2013-07-11 03:42:00,
2013-07-10 23:53:00,67.0,67.0,30.36,ESE,120,4.0,7.0,99,0.00,,,0.00,0.000000,,2013-07-11 03:53:00,